Location: Newark
(0.5300°S, 127.4800°E)
Time: 19:53:39
(UTC+00:00)

Vanguard 3 - Pass Details

Date: 23 September 2019
Orbit: 508 x 3262 km, 33.3° (Epoch: 21 October)

Event Time Altitude Azimuth Distance (km) Brightness Sun altitude
Rises 03:38:44 0° 318° (NW) 7,146 12.0 85.9°
Reaches altitude 10° 03:44:56 10° 329° (NNW) 6,194 11.8 84.4°
Maximum altitude 04:00:30 28° 21° (NNE) 4,451 11.3 80.5°
Drops below altitude 10° 04:12:49 10° 75° (ENE) 4,943 11.1 77.4°
Sets 04:16:55 0° 86° (E) 5,558 11.3 76.4°
